Regional Weather Roundup
Issued by NWS State College, PA

Home | Current Version | Previous Version | Graphics & Text | Print | Product List | Glossary Off
Versions: 1 2 3 4 5 6 7 8 9 10 11 12 13 14 15 16 17 18 19 20 21 22 23 24 25 26 27 28 29 30 31 32 33 34 35 36 37 38 39 40 41 42 43 44 45 46 47 48 49 50

000
ASUS41 KCTP 262310
RWRCTP

REGIONAL WEATHER ROUNDUP
NATIONAL WEATHER SERVICE STATE COLLEGE PA
700 PM EDT TUE AUG 26 2014

Note: "fair" indicates few or no clouds below 12,000 feet with no
significant weather and/or obstructions to visibility.

* = STATION THAT DOES NOT REPORT PRECIPITATION /E.G. RAIN...SNOW...ETC/
    THUNDER OR FOG.

PAZ002>004-007>009-013>016-020>023-029>032-270000-
WESTERN PENNSYLVANIA

CITY           SKY/WX    TMP DP  RH WIND       PRES   REMARKS
ERIE           FAIR      81  67  62 W5        30.07R
MEADVILLE      FAIR      79  67  66 S6        30.11F
FRANKLIN*      FAIR      79  64  61 SW5       30.14S
NEW CASTLE     MOCLDY    82  70  67 CALM      30.12R
BEAVER COUNTY  SUNNY     81  66  61 W5        30.13R
BUTLER*        FAIR      81  66  61 SW3       30.14R
PITTSBURGH INT FAIR      82  62  50 SW6       30.11F
PITTSBURGH     FAIR      79  61  53 S6        30.11F
INDIANA*       SUNNY     79  59  50 MISG      30.17S
LATROBE        SUNNY     81  61  50 SW3       30.13S
WASHINGTON CO* FAIR      79  64  61 CALM      30.13S
$$

PAZ004>006-010>012-017>019-024>028-033>037-041-042-045-046-049>053-270000-
CENTRAL PENNSYLVANIA

CITY           SKY/WX    TMP DP  RH WIND       PRES   REMARKS
BRADFORD       FAIR      77  62  59 SW3       30.15R
DUBOIS         FAIR      76  63  64 SW5       30.14S
CLEARFIELD     FAIR      78  61  55 SW6       30.13S
JOHNSTOWN      FAIR      74  52  46 S7        30.17S
ALTOONA        FAIR      78  58  49 S6        30.15R
STATE COLLEGE  CLEAR     77  59  53 SW6       30.13R
WILLIAMSPORT   FAIR      80  60  50 S8        30.07S
SELINSGROVE    FAIR      78  64  61 S5        30.10S
FT INDIANTOWN  FAIR      81  61  50 NW2       30.10S
CAPITAL CITY   FAIR      80  60  50 SW5       30.09S
HARRISBURG     FAIR      79  67  66 CALM      30.08S
YORK           FAIR      79  65  62 SW3       30.09F
$$

PAZ038>040-043-044-047-048-054-055-060>062-067>071-270000-
EASTERN PENNSYLVANIA

CITY           SKY/WX    TMP DP  RH WIND       PRES   REMARKS
SCRANTON       FAIR      81  59  47 W8        30.10R
MOUNT POCONO   FAIR      75  59  57 SW7       30.15S
ALLENTOWN      FAIR      82  57  42 W5        30.08S
QUAKERTOWN*    FAIR      82  64  54 CALM      30.10S
READING        FAIR      84  60  44 W6        30.08S
LANCASTER      FAIR      81  58  45 SW5       30.09S
COATESVILLE    FAIR      79  63  57 W3        30.11S
POTTSTOWN      FAIR      82  60  47 W3        30.10S
BLUE BELL      FAIR      79  68  69 CALM      30.07S
DOYLESTOWN     FAIR      78  63  59 CALM      30.08S
WILLOW GROVE   NOT AVBL
NORTH PHILA    FAIR      83  61  47 S8        30.09S
PHILADELPHIA   FAIR      83  64  52 S8        30.08S
$$


USA.gov is the U.S. government's official web portal to all federal, state and local government web resources and services.